Погода в Кировске

Беларусь     53°16′23″N   29°28′06″E
темп.,
°C
ветер,
м/с
пор.,
м/с
влажн.,
%
обл.,
%
осадки,
мм/ч
давл.,
гПа
погр.,
м
28 июня, вт
вт2800:00+21всв118285 0.0 102211
03:00+20всв118589 0.0 102111
06:00+21св2286100 0.0 102118
09:00+25ссв127186 0.0 1020368
12:00+29ссв225318 0.0 10201587
15:00+30юв335066 0.0 10191803
18:00+30вюв225643 0.0 10181403
21:00+24в358136 0.1 101884
29 июня, ср
ср2900:00+21вюв3384100 0.8 101929
03:00+19ссв3794100 3.8 1019121
06:00+20ссв1188100 0.1 101813
09:00+24всв237999 0.4 1018279
12:00+22св588596 4.4 1018362
15:00+20в598698 4.4 1018372
18:00+24вюв557139 0.0 1017930
21:00+20всв368999 0.0 1017174
30 июня, чт
чт3000:00+17в4995100 0.0 1017228
03:00+16в37976 0.0 1017167
06:00+16в369719 0.0 1018200
09:00+21в4577100 0.0 1018550
12:00+24в456414 0.0 10181221
15:00+26в34517 0.0 10181914
18:00+25всв5658100 0.0 1018600
21:00+19всв47772 0.0 1019118
1 июля, пт
пт100:00+16в33854 0.0 102035
03:00+14в22850 0.0 102112
06:00+15всв22820 0.0 102124
09:00+21в34661 0.0 1021356
12:00+24в35475 0.0 10211290
15:00+26вюв344238 0.0 10211554
18:00+25вюв3455100 0.0 10201292
21:00+20в337498 0.0 102136
2 июля, сб
сб200:00+17вюв3380100 0.0 102133
03:00+16юв2280100 0.0 102224
06:00+16юв338177 0.0 102257
09:00+21ююв34670 0.0 1022352
12:00+25ююв33560 0.0 10211020
15:00+27ююв23490 0.0 10201724
18:00+27ююв33543 0.0 10191072
21:00+22юв226876 0.0 101914